Location: ????????
(56.1167°N, 38.6333°E)
Time: 22:13:02
(UTC+00:00)

SJ 16-02 - Pass Details

Date: 18 November 2025
Orbit: 585 x 594 km, 75.0° (Epoch: 06 December)

Event Time Altitude Azimuth Distance (km) Brightness Sun altitude
Rises 15:04:53 0° 171° (S) 2,827 4.8 -15.2°
Reaches altitude 10° 15:07:20 10° 159° (SSE) 1,930 3.8 -15.5°
Enters shadow 15:10:54 27° 103° (ESE) 1,163 2.2 -16.0°
